Flag for Germany Weather past 2 weeks in Wittenberg, Saxony-Anhalt, Germany

Now
97 °F

Scattered clouds.


Feels Like: 96 °F
Forecast: 63 / 78 °F
Wind: 7 mph from Southeast

Location: Holzdorf

Current Time: Jul 5, 2015 at 8:05:44 PM

Latest Report: Jul 5, 2015 at 7:20 PM


Visibility: N/A

Pressure: 29.86 "Hg

Humidity: 28%

Dew point: 59 °F

Location of WittenbergLocation

Historic Weather in Wittenberg — Graph

°F

Wittenberg temperature yesterday

Maximum temperature yesterday: 99 °F (at 2:20 PM)
Minimum temperature yesterday: 66 °F (at 4:20 AM)
Average temperature yesterday: 85 °F

Past Weeks' High & Low Weather Summary

 TemperatureHumidityPressure
High99 °F (Jul 4, 2:20 PM)100% (Jun 22, 6:20 PM)30.24 "Hg (Jun 22, 6:20 PM)
Low43 °F (Jun 25, 3:20 AM)24% (Jul 2, 6:20 PM)29.62 "Hg (Jun 23, 1:20 AM)
Average67 °F64%30.07 "Hg
* Reported Jun 20 6:20 PM — Jul 5 6:20 PM, Wittenberg, Weather by CustomWeather, © 2015

Note: Actual official high and low records may vary slightly from our data, if they occured in-between our weather recording intervals... More about our weather records

Advertising

Wittenberg weather history for previous 24 hours

 ConditionsComfort  
Time TempWeatherWind HumidityBarometerVisibility
6:20 PM
Sun, Jul 5
99 °FScattered clouds.7 mph25%29.89 "HgN/A
5:20 PM99 °FScattered clouds.5 mph27%29.92 "HgN/A
4:20 PM99 °FScattered clouds.3 mph27%29.95 "HgN/A
3:20 PM99 °FScattered clouds.7 mph27%29.95 "HgN/A
2:20 PM97 °FPassing clouds.6 mph30%29.98 "HgN/A
1:20 PM95 °FPassing clouds.7 mph32%30.01 "HgN/A
12:20 PM93 °FPassing clouds.5 mph34%30.01 "HgN/A
11:20 AM90 °FPassing clouds.5 mph38%30.04 "HgN/A
10:20 AM86 °FPassing clouds.5 mph46%30.04 "HgN/A
9:20 AM82 °FScattered clouds.6 mph51%30.07 "HgN/A
8:20 AM79 °FScattered clouds.6 mph58%30.07 "HgN/A
7:20 AM77 °FPartly sunny.3 mph57%30.07 "HgN/A
6:20 AM75 °FBroken clouds.5 mph61%30.04 "HgN/A
5:20 AM75 °FPartly cloudy.6 mph61%30.04 "HgN/A
4:20 AM77 °FPartly cloudy.7 mph57%30.07 "HgN/A
3:20 AM79 °FPartly cloudy.7 mph54%30.07 "HgN/A
2:20 AM79 °FPartly cloudy.2 mph51%30.07 "HgN/A
1:20 AM81 °FThundershowers. Partly cloudy.2 mph48%30.07 "HgN/A
12:20 AM84 °FPartly cloudy.8 mph45%30.07 "HgN/A
11:20 PM
Sat, Jul 4
81 °FPartly cloudy.5 mph54%30.04 "HgN/A
10:20 PM86 °FBroken clouds.3 mph43%30.04 "HgN/A
9:20 PM84 °FBroken clouds.3 mph48%30.04 "HgN/A
8:20 PM93 °FBroken clouds.3 mph32%30.04 "HgN/A
Weather by CustomWeather, © 2015

See weather overviewHow to use our weather pages